Tacoma, WA

7:07 AM PDT on June 26, 2017 (GMT -0700)
McChord Air Force Base

Weather History for KTCM - December, 2012

Change the Weather History Date:

Saturday, December 8, 2012

  Actual Average Record
Temperature  
Mean Temperature 40 °F -  
Max Temperature 43 °F 46 °F 61 °F (1957)
Min Temperature 36 °F 33 °F 5 °F (1972)
Degree Days  
Heating Degree Days 26    
Moisture  
Dew Point 36 °F    
Average Humidity 89    
Maximum Humidity 100    
Minimum Humidity 74    
Precipitation  
Precipitation 0.00 in - - ()
Sea Level Pressure  
Sea Level Pressure 30.27 in    
Wind  
Wind Speed 5 mph (South)    
Max Wind Speed 10 mph    
Max Gust Speed -    
Visibility 10 miles    
Events      
Averages and records for this station are not official NWS values.
T = Trace of Precipitation, MM = Missing Value Source: NWS Daily Summary

Daily Weather History Graph

Daily Weather History Graph

Search for Another Location

Airport or City:

Trip Planner

Search our weather history database for the weather conditions in past years. The results will help you decide how hot, cold, wet, or windy it might be!

Date:

Astronomy

Dec. 08, 2012 Rise Set
Actual Time 7:43 AM PST 4:20 PM PST
Civil Twilight 7:08 AM PST 4:55 PM PST
Nautical Twilight 6:29 AM PST 5:34 PM PST
Astronomical Twilight 5:52 AM PST 6:11 PM PST
Moon 1:57 AM PST (12/8) 1:08 PM PST (12/8)
Length of Visible Light 9h 46m
Length of Day
8h 36m
Waning Crescent, 27% of the Moon is Illuminated
Dec 8
Waning Crescent
Dec 13
New
Dec 19
First Quarter
Dec 28
Full
Jan 4
Last Quarter

Hourly Weather History & Observations

Time (PST) Temp. Windchill Dew Point Humidity Pressure Visibility Wind Dir Wind Speed Gust Speed Precip Events Conditions
12:58 AM 38.8 °F 34.6 °F 33.4 °F 81% 30.18 in 10.0 mi South 5.8 mph - N/A   Mostly Cloudy
1:58 AM 38.8 °F 33.2 °F 33.8 °F 82% 30.18 in 10.0 mi SSW 8.1 mph - N/A   Mostly Cloudy
2:58 AM 39.2 °F 32.5 °F 34.3 °F 83% 30.18 in 10.0 mi SSW 10.4 mph - N/A   Partly Cloudy
3:58 AM 37.6 °F 34.0 °F 34.3 °F 88% 30.18 in 10.0 mi SSE 4.6 mph - N/A   Clear
4:58 AM 38.1 °F 32.3 °F 34.9 °F 88% 30.19 in 10.0 mi South 8.1 mph - N/A   Partly Cloudy
5:58 AM 37.6 °F 34.0 °F 34.7 °F 89% 30.20 in 10.0 mi South 4.6 mph - N/A   Overcast
6:58 AM 37.0 °F 34.5 °F 35.2 °F 93% 30.21 in 10.0 mi ESE 3.5 mph - N/A   Scattered Clouds
7:43 AM 37.4 °F 34.9 °F 35.6 °F 93% 30.20 in 10.0 mi SSE 3.5 mph - N/A   Mostly Cloudy
7:53 AM 37.4 °F - 35.6 °F 93% 30.19 in 10.0 mi SSE 2.3 mph - N/A   Scattered Clouds
7:58 AM 36.9 °F - 35.2 °F 94% 30.21 in 10.0 mi SE 2.3 mph - N/A   Scattered Clouds
8:58 AM 37.8 °F - 36.1 °F 94% 30.23 in 10.0 mi SSE 1.2 mph - N/A   Mostly Cloudy
9:58 AM 40.1 °F 38.0 °F 36.7 °F 88% 30.25 in 10.0 mi East 3.5 mph - N/A   Scattered Clouds
10:08 AM 41.0 °F 39.0 °F 37.4 °F 87% 30.23 in 10.0 mi SE 3.5 mph - N/A   Mostly Cloudy
10:23 AM 41.0 °F 38.0 °F 37.4 °F 87% 30.24 in 10.0 mi SSE 4.6 mph - N/A   Scattered Clouds
10:58 AM 41.7 °F 38.8 °F 37.0 °F 83% 30.26 in 10.0 mi South 4.6 mph - N/A   Partly Cloudy
11:58 AM 42.8 °F 40.1 °F 35.6 °F 76% 30.26 in 10.0 mi WSW 4.6 mph - N/A   Mostly Cloudy
12:58 PM 43.0 °F 41.3 °F 35.8 °F 76% 30.26 in 10.0 mi West 3.5 mph - N/A   Overcast
1:28 PM 42.8 °F 40.1 °F 35.6 °F 76% 30.25 in 10.0 mi WSW 4.6 mph - N/A   Overcast
1:58 PM 43.3 °F 41.7 °F 35.6 °F 74% 30.27 in 10.0 mi West 3.5 mph - N/A   Mostly Cloudy
2:58 PM 43.0 °F - 35.6 °F 75% 30.28 in 10.0 mi WSW 2.3 mph - N/A   Mostly Cloudy
3:58 PM 42.3 °F - 36.3 °F 79% 30.30 in 10.0 mi West 2.3 mph - N/A   Overcast
4:33 PM 42.8 °F - 35.6 °F 76% 30.28 in 10.0 mi WNW 2.3 mph - N/A   Overcast
4:58 PM 41.7 °F - 36.3 °F 81% 30.30 in 10.0 mi WNW 1.2 mph - N/A   Mostly Cloudy
5:58 PM 39.6 °F - 37.0 °F 91% 30.31 in 10.0 mi East 2.3 mph - N/A   Scattered Clouds
6:58 PM 37.6 °F - 36.5 °F 96% 30.32 in 10.0 mi South 2.3 mph - N/A   Overcast
7:58 PM 37.8 °F 35.3 °F 37.4 °F 99% 30.34 in 10.0 mi South 3.5 mph - N/A   Scattered Clouds
8:58 PM 37.6 °F - 37.0 °F 98% 30.35 in 10.0 mi South 2.3 mph - N/A   Clear
9:58 PM 37.0 °F 34.5 °F 36.7 °F 99% 30.35 in 10.0 mi SSE 3.5 mph - N/A   Partly Cloudy
10:54 PM 37.4 °F 33.8 °F 37.4 °F 100% 30.34 in 10.0 mi South 4.6 mph - N/A   Partly Cloudy
10:58 PM 37.2 °F 34.7 °F 37.0 °F 99% 30.36 in 10.0 mi South 3.5 mph - N/A   Partly Cloudy
11:33 PM 37.4 °F - 37.4 °F 100% 30.35 in 10.0 mi SSE 2.3 mph - N/A   Mostly Cloudy
11:38 PM 37.4 °F - 37.4 °F 100% 30.35 in 10.0 mi SSE 2.3 mph - N/A   Mostly Cloudy
11:43 PM 37.4 °F - 37.4 °F 100% 30.35 in 10.0 mi SSE 2.3 mph - N/A   Mostly Cloudy
11:58 PM 37.9 °F 35.5 °F 37.8 °F 99% 30.36 in 10.0 mi SSE 3.5 mph - N/A   Overcast